User: anonymous   Login
Location: Newark
(43.0000°N, 1.6781°W)
Time: 04:12:47
(UTC+00:00)
Language:

A-11 Canister half - Orbit

View from above orbital plane
View from above orbital plane
View from above satellite
View from above satellite

Ground track
Ground track

The orbit data is extracted from the following two-line orbital elements,

1 00051U 60009C   21102.46447215 -.00000093  00000-0 -82845-4 0  9995
2 00051  47.2114 142.3577 0106803 330.7845  28.6998 12.18274328700540
Epoch (UTC): 12 April 2021 11:08:50
Eccentricity: 0.0106803
inclination: 47.2114°
perigee height: 1515 km
apogee height: 1685 km
right ascension of ascending node: 142.3577°
argument of perigee: 330.7845°
revolutions per day: 12.18274328
mean anomaly at epoch: 28.6998°
orbit number at epoch: 70054

The dashed part of the orbit path shows where the satellite is in the earth's shadow,  

DLR